TimeCST,TemperatureF,Dew PointF,Humidity,Sea Level PressureIn,VisibilityMPH,Wind Direction,Wind SpeedMPH,Gust SpeedMPH,PrecipitationIn,Events,Conditions,WindDirDegrees,DateUTC
12:08 AM,15.8,12.2,86,30.20,1.8,NNW,20.7,-,0.00,Snow,Light Snow,330,2013-03-05 06:08:00
1:54 AM,12.9,10.0,88,30.33,4.0,NW,20.7,-,0.00,,Overcast,320,2013-03-05 07:54:00
2:06 AM,12.2,8.6,85,30.24,3.0,NW,17.3,-,N/A,,Overcast,320,2013-03-05 08:06:00
2:26 AM,10.4,8.6,92,30.25,4.0,NW,18.4,-,N/A,,Scattered Clouds,320,2013-03-05 08:26:00
2:54 AM,10.0,6.1,84,30.37,6.0,NW,17.3,-,N/A,,Clear,320,2013-03-05 08:54:00
3:54 AM,8.1,3.9,83,30.40,6.0,NW,18.4,-,N/A,,Mostly Cloudy,310,2013-03-05 09:54:00
4:23 AM,8.6,5.0,85,30.30,4.0,NW,17.3,-,0.00,Snow,Light Snow,310,2013-03-05 10:23:00
4:37 AM,8.6,5.0,85,30.31,2.5,WNW,17.3,-,0.00,Snow,Light Snow,300,2013-03-05 10:37:00
4:54 AM,9.0,5.0,84,30.42,3.0,NW,17.3,-,0.00,Snow,Light Snow,310,2013-03-05 10:54:00
5:03 AM,8.6,5.0,85,30.31,3.0,NW,16.1,-,0.00,Snow,Light Snow,310,2013-03-05 11:03:00
5:54 AM,9.0,5.0,84,30.44,4.0,NW,12.7,-,0.00,Snow,Light Snow,310,2013-03-05 11:54:00
6:54 AM,8.6,6.8,92,30.35,5.0,NW,15.0,-,N/A,Snow,Light Snow,310,2013-03-05 12:54:00
7:47 AM,8.6,5.0,85,30.36,1.8,WNW,15.0,-,0.00,Snow,Light Snow,300,2013-03-05 13:47:00
7:54 AM,9.0,5.0,84,30.47,1.8,NW,15.0,-,0.00,Snow,Light Snow,310,2013-03-05 13:54:00
8:15 AM,8.6,5.0,85,30.36,2.0,NW,16.1,-,0.00,Snow,Light Snow,310,2013-03-05 14:15:00
8:46 AM,8.6,5.0,85,30.37,1.5,WNW,12.7,-,0.00,Snow,Light Snow,300,2013-03-05 14:46:00
8:54 AM,8.1,5.0,87,30.48,1.5,WNW,13.8,-,0.00,Snow,Light Snow,300,2013-03-05 14:54:00
9:54 AM,9.0,5.0,84,30.51,1.5,WNW,16.1,-,0.00,Snow,Light Snow,290,2013-03-05 15:54:00
10:20 AM,10.4,6.8,85,30.39,2.0,WNW,15.0,-,0.00,Snow,Light Snow,300,2013-03-05 16:20:00
10:35 AM,10.4,6.8,85,30.39,1.8,WNW,13.8,-,0.00,Snow,Light Snow,300,2013-03-05 16:35:00
10:42 AM,10.4,6.8,85,30.39,2.0,WNW,13.8,-,0.00,Snow,Light Snow,300,2013-03-05 16:42:00
10:54 AM,10.9,7.0,84,30.51,2.0,WNW,12.7,-,0.00,Snow,Light Snow,300,2013-03-05 16:54:00
11:38 AM,12.2,6.8,79,30.39,5.0,WNW,12.7,-,0.00,Snow,Light Snow,300,2013-03-05 17:38:00
11:54 AM,12.9,8.1,81,30.50,5.0,NW,12.7,-,0.00,,Haze,320,2013-03-05 17:54:00
12:03 PM,14.0,8.6,79,30.39,4.0,NW,10.4,-,N/A,,Haze,320,2013-03-05 18:03:00
12:54 PM,14.0,9.0,80,30.50,10.0,NW,12.7,-,N/A,,Clear,310,2013-03-05 18:54:00
1:54 PM,16.0,10.0,77,30.50,10.0,WNW,10.4,-,N/A,,Clear,300,2013-03-05 19:54:00
2:54 PM,16.0,10.0,77,30.49,10.0,WNW,9.2,-,N/A,,Clear,300,2013-03-05 20:54:00
3:54 PM,17.1,10.9,77,30.49,10.0,WNW,9.2,-,N/A,,Clear,300,2013-03-05 21:54:00
4:54 PM,16.0,10.0,77,30.48,10.0,WNW,8.1,-,N/A,,Clear,300,2013-03-05 22:54:00
5:54 PM,12.0,8.1,84,30.48,10.0,WNW,5.8,-,N/A,,Clear,300,2013-03-05 23:54:00
6:54 PM,8.1,5.0,87,30.49,10.0,WNW,4.6,-,N/A,,Clear,300,2013-03-06 00:54:00
7:54 PM,7.0,5.0,92,30.49,10.0,WNW,6.9,-,N/A,,Clear,290,2013-03-06 01:54:00
8:54 PM,7.0,3.9,87,30.49,10.0,West,4.6,-,N/A,,Clear,260,2013-03-06 02:54:00
9:54 PM,3.9,1.9,91,30.50,10.0,SSW,5.8,-,N/A,,Clear,200,2013-03-06 03:54:00
10:54 PM,1.9,-0.9,88,30.50,10.0,SW,5.8,-,N/A,,Clear,230,2013-03-06 04:54:00
11:54 PM,1.9,-0.0,91,30.49,10.0,SW,6.9,-,N/A,,Clear,230,2013-03-06 05:54:00